User: anonymous   Login
Location: Caltech
(34.1382°N, 118.1253°W)
Time: 14:05:31
(UTC-07:00)
Language:

BREEZE M DEB (TANK) - Orbit

View from above orbital plane
View from above orbital plane
View from above satellite
View from above satellite

Ground track
Ground track

The orbit data is extracted from the following two-line orbital elements,

1 33437U 08057B   18172.39286602 +.00000132 +00000-0 +72784-4 0  9993
2 33437 049.5681 289.9563 4978744 344.2823 004.5963 05.60871510194550
Epoch (UTC): 21 June 2018 09:25:43
Eccentricity: 0.4978744
inclination: 49.5681°
perigee height: 341 km
apogee height: 13665 km
right ascension of ascending node: 289.9563°
argument of perigee: 344.2823°
revolutions per day: 5.60871510
mean anomaly at epoch: 4.5963°
orbit number at epoch: 19455

The dashed part of the orbit path shows where the satellite is in the earth's shadow,  

DLR